Date String (YYYY-MM-DD hh:mm:ss) UTC,Instrument flags,absolute air pressure of the measurement (hPa),sample flow rate (lpm),inlet stack bypass flow (lpm),air temperature of the measurement (°C),ambient temperature measured by the external sensor (°C),aerosol sample conditioner tube jacket temperature (°C),OPC LED temperature (°C),internal box temperature (°C),relative humidity of the measurement (%),span deviation,mass concentration of particles derived from Lorenz-Mie calculation of OPC scattering (μg/m³),mass concentration of particles derived from Lorenz-Mie calculation of OPC scattering (μg/m³),mass concentration of particles derived from Lorenz-Mie calculation of OPC scattering (μg/m³)
DateTimeUTC,F1_M11,P_M11,Q1_M11,Q2_M11,T1_M11,T2_M11,T3_M11,T4_M11,T5_M11,U1_M11,ZSPAN_M11,X0_M11,X2_M11,X1_M11
2024-05-05 18:00:00,SystemResetWarning,0820.3,5.00,000.00,025.0,024.4,000.0,033.3,026.8,023.6,0000.0,0016.99,0005.24,0004.13
2024-05-05 18:01:00,SystemResetWarning,0820.3,5.00,000.00,025.0,024.4,000.0,033.3,026.8,023.5,0000.0,0018.64,0005.24,0004.12
2024-05-05 18:02:00,SystemResetWarning,0820.3,4.99,000.00,025.0,024.4,000.0,033.4,026.8,023.3,0000.0,0019.26,0005.24,0004.11
2024-05-05 18:03:00,SystemResetWarning,0820.3,4.99,000.00,025.0,024.4,000.0,033.4,026.8,023.3,0000.0,0018.98,0005.23,0004.09
2024-05-05 18:04:00,SystemResetWarning,0820.2,5.01,000.00,025.0,024.4,000.0,033.4,026.9,023.2,0000.0,0019.79,0005.20,0004.08
2024-05-05 18:05:00,SystemResetWarning,0820.1,5.01,000.00,025.0,024.4,000.0,033.4,026.8,023.5,0000.0,0019.94,0005.15,0004.06
2024-05-05 18:06:00,SystemResetWarning,0820.2,5.00,000.00,025.1,024.4,000.0,033.4,026.9,023.0,0000.0,0019.85,0005.13,0004.06
2024-05-05 18:07:00,SystemResetWarning,0820.1,4.99,000.00,025.1,024.4,000.0,033.4,026.8,023.0,0000.0,0019.17,0005.13,0004.07
2024-05-05 18:08:00,SystemResetWarning,0820.0,5.00,000.00,025.1,024.4,000.0,033.4,026.8,023.3,0000.0,0018.45,0005.16,0004.06
2024-05-05 18:09:00,SystemResetWarning,0820.0,5.01,000.00,025.1,024.4,000.0,033.4,026.8,023.2,0000.0,0017.35,0005.17,0004.06
2024-05-05 18:10:00,SystemResetWarning,0820.1,5.01,000.00,025.1,024.4,000.0,033.4,026.8,023.2,0000.0,0016.86,0005.14,0004.08
2024-05-05 18:11:00,SystemResetWarning,0820.1,4.99,000.00,025.1,024.5,000.0,033.4,026.8,022.6,0000.0,0016.91,0005.14,0004.07
2024-05-05 18:12:00,SystemResetWarning,0820.1,4.98,000.00,025.1,024.5,000.0,033.4,026.8,023.2,0000.0,0015.38,0005.13,0004.07
2024-05-05 18:13:00,SystemResetWarning,0820.1,5.01,000.00,025.1,024.5,000.0,033.4,026.8,023.2,0000.0,0015.46,0005.10,0004.07
2024-05-05 18:14:00,SystemResetWarning,0820.1,5.01,000.00,025.1,024.5,000.0,033.4,026.9,023.7,0000.0,0016.00,0005.11,0004.08
2024-05-05 18:15:00,SystemResetWarning,0820.1,4.98,000.00,025.1,024.5,000.0,033.4,026.9,024.5,0000.0,0014.76,0005.13,0004.10
2024-05-05 18:16:00,SystemResetWarning,0820.0,5.00,000.00,025.1,024.5,000.0,033.4,026.9,024.3,0000.0,0014.19,0005.18,0004.12
2024-05-05 18:17:00,SystemResetWarning,0819.8,5.01,000.00,025.1,024.5,000.0,033.4,026.9,024.0,0000.0,0014.36,0005.19,0004.13
2024-05-05 18:18:00,SystemResetWarning,0819.9,5.01,000.00,025.1,024.5,000.0,033.5,026.9,024.1,0000.0,0016.33,0005.23,0004.16
2024-05-05 18:19:00,SystemResetWarning,0820.1,5.00,000.00,025.2,024.5,000.0,033.5,026.9,024.5,0000.0,0017.18,0005.26,0004.19
2024-05-05 18:20:00,SystemResetWarning,0820.1,4.99,000.00,025.2,024.6,000.0,033.5,026.9,024.4,0000.0,0017.90,0005.29,0004.21
2024-05-05 18:21:00,SystemResetWarning,0820.2,5.00,000.00,025.2,024.6,000.0,033.5,026.9,024.4,0000.0,0019.11,0005.31,0004.22
2024-05-05 18:22:00,SystemResetWarning,0820.1,5.02,000.00,025.2,024.6,000.0,033.5,026.9,025.0,0000.0,0019.00,0005.35,0004.25
2024-05-05 18:23:00,SystemResetWarning,0819.8,5.01,000.00,025.2,024.6,000.0,033.5,026.9,025.0,0000.0,0018.90,0005.38,0004.26
2024-05-05 18:24:00,SystemResetWarning,0819.8,4.99,000.00,025.2,024.6,000.0,033.5,027.0,024.3,0000.0,0018.10,0005.39,0004.26
2024-05-05 18:25:00,SystemResetWarning,0819.8,5.00,000.00,025.2,024.6,000.0,033.5,027.0,024.1,0000.0,0017.20,0005.43,0004.27
2024-05-05 18:26:00,SystemResetWarning,0819.9,5.00,000.00,025.3,024.7,000.0,033.5,027.0,023.9,0000.0,0017.48,0005.48,0004.28
2024-05-05 18:27:00,SystemResetWarning,0820.3,5.00,000.00,025.3,024.7,000.0,033.5,027.0,023.8,0000.0,0018.10,0005.53,0004.28
2024-05-05 18:28:00,SystemResetWarning,0820.1,5.00,000.00,025.3,024.7,000.0,033.5,027.0,023.6,0000.0,0018.10,0005.59,0004.28
2024-05-05 18:29:00,SystemResetWarning,0820.2,5.01,000.00,025.3,024.7,000.0,033.6,027.1,023.4,0000.0,0016.71,0005.62,0004.26
2024-05-05 18:30:00,SystemResetWarning,0819.9,5.01,000.00,025.3,024.7,000.0,033.6,027.1,023.2,0000.0,0016.24,0005.64,0004.24
2024-05-05 18:31:00,SystemResetWarning,0820.0,4.99,000.00,025.3,024.8,000.0,033.6,027.1,022.8,0000.0,0016.03,0005.63,0004.24
2024-05-05 18:32:00,SystemResetWarning,0820.1,5.00,000.00,025.3,024.8,000.0,033.6,027.1,023.3,0000.0,0014.51,0005.61,0004.21
2024-05-05 18:33:00,SystemResetWarning,0820.2,4.99,000.00,025.4,024.8,000.0,033.6,027.1,024.7,0000.0,0014.69,0005.60,0004.18
2024-05-05 18:34:00,SystemResetWarning,0820.0,5.01,000.00,025.4,024.8,000.0,033.6,027.1,024.0,0000.0,0015.20,0005.61,0004.17
2024-05-05 18:35:00,SystemResetWarning,0819.7,5.01,000.00,025.4,024.8,000.0,033.6,027.2,024.6,0000.0,0016.24,0005.65,0004.17
2024-05-05 18:36:00,SystemResetWarning,0819.8,4.99,000.00,025.4,024.9,000.0,033.6,027.2,024.5,0000.0,0016.96,0005.70,0004.19
2024-05-05 18:37:00,SystemResetWarning,0819.6,5.00,000.00,025.4,024.9,000.0,033.7,027.2,024.4,0000.0,0016.77,0005.71,0004.20
2024-05-05 18:38:00,SystemResetWarning,0819.6,5.01,000.00,025.4,024.9,000.0,033.7,027.2,024.3,0000.0,0016.27,0005.69,0004.22
2024-05-05 18:39:00,SystemResetWarning,0819.8,5.01,000.00,025.5,024.9,000.0,033.7,027.2,025.1,0000.0,0016.00,0005.68,0004.23
2024-05-05 18:40:00,SystemResetWarning,0819.5,5.00,000.00,025.5,024.9,000.0,033.7,027.2,024.6,0000.0,0015.93,0005.67,0004.24
2024-05-05 18:41:00,SystemResetWarning,0819.5,4.99,000.00,025.5,024.9,000.0,033.7,027.2,024.5,0000.0,0015.37,0005.61,0004.24
2024-05-05 18:42:00,SystemResetWarning,0819.5,5.00,000.00,025.5,024.9,000.0,033.7,027.2,024.5,0000.0,0014.68,0005.63,0004.25
2024-05-05 18:43:00,SystemResetWarning,0819.5,5.00,000.00,025.5,025.0,000.0,033.7,027.3,024.3,0000.0,0015.75,0005.72,0004.27
2024-05-05 18:44:00,SystemResetWarning,0819.6,5.01,000.00,025.5,025.0,000.0,033.7,027.3,024.5,0000.0,0015.99,0005.75,0004.29
2024-05-05 18:45:00,SystemResetWarning,0819.5,5.00,000.00,025.6,025.0,000.0,033.8,027.3,024.1,0000.0,0016.65,0005.75,0004.32
2024-05-05 18:46:00,SystemResetWarning,0819.4,4.98,000.00,025.6,025.0,000.0,033.8,027.3,024.0,0000.0,0016.76,0005.80,0004.34
2024-05-05 18:47:00,SystemResetWarning,0819.5,5.01,000.00,025.6,025.0,000.0,033.8,027.3,023.9,0000.0,0016.49,0005.82,0004.34
2024-05-05 18:48:00,SystemResetWarning,0819.5,5.02,000.00,025.6,025.0,000.0,033.8,027.4,024.1,0000.0,0018.09,0005.83,0004.34
2024-05-05 18:49:00,SystemResetWarning,0819.4,4.99,000.00,025.6,025.1,000.0,033.8,027.4,024.1,0000.0,0020.64,0005.86,0004.35
2024-05-05 18:50:00,SystemResetWarning,0819.4,4.99,000.00,025.6,025.1,000.0,033.8,027.4,024.1,0000.0,0020.86,0005.86,0004.36
2024-05-05 18:51:00,SystemResetWarning,0819.4,5.00,000.00,025.6,025.1,000.0,033.9,027.4,023.6,0000.0,0020.65,0005.84,0004.39
2024-05-05 18:52:00,SystemResetWarning,0819.4,5.02,000.00,025.7,025.1,000.0,033.9,027.4,023.5,0000.0,0020.75,0005.85,0004.40
2024-05-05 18:53:00,SystemResetWarning,0819.4,5.01,000.00,025.7,025.1,000.0,033.9,027.4,023.5,0000.0,0020.63,0005.82,0004.42
2024-05-05 18:54:00,SystemResetWarning,0819.3,4.99,000.00,025.7,025.1,000.0,033.9,027.4,024.3,0000.0,0019.52,0005.79,0004.43
2024-05-05 18:55:00,SystemResetWarning,0819.3,4.99,000.00,025.7,025.1,000.0,033.9,027.4,024.8,0000.0,0019.36,0005.74,0004.43
2024-05-05 18:56:00,SystemResetWarning,0819.3,5.01,000.00,025.7,025.1,000.0,033.9,027.5,024.4,0000.0,0018.60,0005.75,0004.43
2024-05-05 18:57:00,SystemResetWarning,0819.3,5.01,000.00,025.7,025.2,000.0,033.9,027.5,024.0,0000.0,0018.93,0005.73,0004.44
2024-05-05 18:58:00,SystemResetWarning,0819.3,4.99,000.00,025.7,025.2,000.0,034.0,027.5,023.9,0000.0,0020.27,0005.73,0004.44
2024-05-05 18:59:00,SystemResetWarning,0819.3,4.99,000.00,025.8,025.2,000.0,034.0,027.5,023.8,0000.0,0018.70,0005.73,0004.46
